When you browse on this site, cookies collect data to enhance your experience and personalize the content and advertising you see.
Visit our Privacy Policy to learn more. By continuing to use the site, you agree to this use of cookies and data.
  • In Spain
  • List of Countries
  • For 7 days
  • Water Temperature
  • Satellite Maps
  • Weather Map
  • Weather Widgets
  • user-avatar
    Login

    Hourly Weather Tirana

    Today, 19 December, Wednesday

    Time Temperature Precipitation Wind Pressure Humidity
    00:00 +1°C° 0 mm 4 mps 759 mmHg 79%
    01:00 +1°C° 0 mm 4 mps 759 mmHg 79%
    02:00 +1°C° 0 mm 4 mps 759 mmHg 79%
    03:00 0°C° 0 mm 4 mps 759 mmHg 79%
    04:00 0°C° 0 mm 4 mps 759 mmHg 78%
    05:00 0°C° 0 mm 4 mps 760 mmHg 78%
    06:00 -1°C° 0 mm 4 mps 760 mmHg 78%
    07:00 -1°C° 0 mm 4 mps 760 mmHg 77%
    08:00 +2°C° 0 mm 3 mps 760 mmHg 76%
    09:00 +4°C° 0 mm 3 mps 760 mmHg 74%
    10:00 +5°C° 0 mm 3 mps 761 mmHg 73%
    11:00 +7°C° 0 mm 3 mps 760 mmHg 72%
    12:00 +8°C° 0 mm 3 mps 760 mmHg 72%
    13:00 +9°C° 0 mm 3 mps 760 mmHg 71%
    14:00 +8°C° 0 mm 3 mps 760 mmHg 74%
    15:00 +7°C° 0 mm 2 mps 760 mmHg 76%
    16:00 +6°C° 0 mm 2 mps 760 mmHg 78%
    17:00 +6°C° 0 mm 2 mps 760 mmHg 78%
    18:00 +5°C° 0 mm 2 mps 761 mmHg 79%
    19:00 +4°C° 0 mm 2 mps 761 mmHg 79%
    20:00 +4°C° 0 mm 2 mps 761 mmHg 77%
    21:00 +4°C° 0 mm 2 mps 761 mmHg 76%
    22:00 +4°C° 0 mm 2 mps 761 mmHg 75%
    23:00 +4°C° 0 mm 2 mps 761 mmHg 74%

    Tomorrow, 20 December, Thursday

    Time Temperature Precipitation Wind Pressure Humidity
    00:00 +4°C° 0 mm 2 mps 761 mmHg 73%
    01:00 +3°C° 0 mm 3 mps 761 mmHg 71%
    02:00 +3°C° 0 mm 3 mps 761 mmHg 71%
    03:00 +3°C° 0 mm 3 mps 761 mmHg 71%
    04:00 +3°C° 0 mm 3 mps 761 mmHg 70%
    05:00 +3°C° 0 mm 3 mps 761 mmHg 70%
    06:00 +3°C° 0 mm 3 mps 761 mmHg 69%
    07:00 +3°C° 0 mm 3 mps 761 mmHg 69%
    08:00 +5°C° 0 mm 4 mps 761 mmHg 69%
    09:00 +6°C° 0 mm 4 mps 761 mmHg 68%
    10:00 +8°C° 0 mm 4 mps 761 mmHg 68%
    11:00 +10°C° 0 mm 4 mps 761 mmHg 67%
    12:00 +10°C° 0 mm 4 mps 761 mmHg 66%
    13:00 +11°C° 0 mm 4 mps 760 mmHg 65%
    14:00 +10°C° 0 mm 4 mps 760 mmHg 67%
    15:00 +8°C° 0 mm 4 mps 761 mmHg 70%
    16:00 +7°C° 0 mm 4 mps 761 mmHg 72%
    17:00 +7°C° 0 mm 4 mps 761 mmHg 72%
    18:00 +6°C° 0 mm 4 mps 761 mmHg 71%
    19:00 +6°C° 0 mm 5 mps 761 mmHg 70%
    20:00 +6°C° 0 mm 4 mps 761 mmHg 71%
    21:00 +5°C° 0 mm 4 mps 762 mmHg 71%
    22:00 +5°C° 0 mm 4 mps 762 mmHg 71%
    23:00 +5°C° 0 mm 4 mps 762 mmHg 72%

    Day after tomorrow, 21 December, Friday

    Time Temperature Precipitation Wind Pressure Humidity
    00:00 +5°C° 0 mm 4 mps 762 mmHg 72%
    01:00 +5°C° 0 mm 4 mps 762 mmHg 73%
    02:00 +6°C° 0.1 mm 4 mps 761 mmHg 74%
    03:00 +6°C° 0.1 mm 4 mps 761 mmHg 75%
    04:00 +7°C° 0.1 mm 3 mps 761 mmHg 76%
    05:00 +7°C° 0.2 mm 3 mps 761 mmHg 77%
    06:00 +7°C° 0.2 mm 3 mps 762 mmHg 78%
    07:00 +8°C° 0.2 mm 3 mps 762 mmHg 80%
    08:00 +9°C° 0.1 mm 2 mps 762 mmHg 79%
    09:00 +9°C° 0.1 mm 2 mps 762 mmHg 79%
    10:00 +10°C° 0.1 mm 2 mps 762 mmHg 79%
    11:00 +12°C° 0.1 mm 2 mps 762 mmHg 78%
    12:00 +12°C° 0.1 mm 2 mps 762 mmHg 78%
    13:00 +13°C° 0.1 mm 1 mps 762 mmHg 77%
    14:00 +12°C° 0 mm 1 mps 762 mmHg 80%
    15:00 +12°C° 0 mm 1 mps 762 mmHg 82%
    16:00 +11°C° 0 mm 1 mps 762 mmHg 84%
    17:00 +11°C° 0 mm 1 mps 762 mmHg 85%
    18:00 +10°C° 0 mm 1 mps 762 mmHg 85%
    19:00 +10°C° 0 mm 1 mps 763 mmHg 86%
    20:00 +10°C° 0 mm 1 mps 763 mmHg 86%
    21:00 +8°C° 0 mm 2 mps 763 mmHg 86%
    22:00 +8°C° 0 mm 2 mps 763 mmHg 87%
    23:00 +8°C° 0 mm 2 mps 763 mmHg 87%

    22 December, Saturday

    Time Temperature Precipitation Wind Pressure Humidity
    00:00 +8°C° 0 mm 2 mps 763 mmHg 87%
    01:00 +8°C° 0 mm 2 mps 762 mmHg 88%
    02:00 +8°C° 0 mm 2 mps 762 mmHg 88%
    03:00 +8°C° 0 mm 2 mps 762 mmHg 88%
    04:00 +8°C° 0 mm 2 mps 762 mmHg 89%
    05:00 +8°C° 0 mm 2 mps 762 mmHg 88%
    06:00 +8°C° 0 mm 2 mps 762 mmHg 88%
    07:00 +8°C° 0 mm 2 mps 762 mmHg 88%
    08:00 +9°C° 0 mm 2 mps 762 mmHg 85%
    09:00 +10°C° 0 mm 2 mps 762 mmHg 83%
    10:00 +12°C° 0 mm 2 mps 762 mmHg 81%
    11:00 +12°C° 0 mm 2 mps 762 mmHg 80%
    12:00 +13°C° 0 mm 2 mps 761 mmHg 80%
    13:00 +13°C° 0 mm 2 mps 761 mmHg 79%
    14:00 +13°C° 0 mm 2 mps 761 mmHg 82%
    15:00 +12°C° 0 mm 2 mps 761 mmHg 84%
    16:00 +10°C° 0 mm 2 mps 761 mmHg 87%
    17:00 +10°C° 0 mm 2 mps 761 mmHg 87%
    18:00 +10°C° 0 mm 2 mps 761 mmHg 88%
    19:00 +9°C° 0 mm 2 mps 761 mmHg 89%
    20:00 +9°C° 0 mm 2 mps 761 mmHg 88%
    21:00 +9°C° 0 mm 2 mps 761 mmHg 88%
    22:00 +8°C° 0 mm 2 mps 761 mmHg 88%
    23:00 +8°C° 0 mm 2 mps 761 mmHg 87%

    23 December, Sunday

    Time Temperature Precipitation Wind Pressure Humidity
    00:00 +8°C° 0 mm 2 mps 761 mmHg 87%
    01:00 +8°C° 0 mm 2 mps 760 mmHg 86%
    02:00 +8°C° 0 mm 2 mps 760 mmHg 86%
    03:00 +8°C° 0 mm 2 mps 760 mmHg 86%
    04:00 +8°C° 0 mm 2 mps 760 mmHg 86%
    05:00 +8°C° 0 mm 2 mps 760 mmHg 86%
    06:00 +8°C° 0 mm 2 mps 760 mmHg 87%
    07:00 +8°C° 0 mm 2 mps 761 mmHg 87%
    08:00 +9°C° 0 mm 2 mps 761 mmHg 84%
    09:00 +10°C° 0 mm 2 mps 761 mmHg 80%
    10:00 +13°C° 0 mm 2 mps 761 mmHg 77%
    11:00 +13°C° 0 mm 2 mps 761 mmHg 76%
    12:00 +14°C° 0 mm 1 mps 760 mmHg 75%
    13:00 +15°C° 0 mm 1 mps 760 mmHg 74%
    14:00 +14°C° 0 mm 1 mps 760 mmHg 78%
    15:00 +13°C° 0 mm 1 mps 760 mmHg 81%
    16:00 +12°C° 0 mm 1 mps 760 mmHg 85%
    17:00 +12°C° 0 mm 1 mps 760 mmHg 86%
    18:00 +11°C° 0 mm 1 mps 761 mmHg 86%
    19:00 +11°C° 0 mm 1 mps 761 mmHg 87%
    20:00 +10°C° 0 mm 1 mps 761 mmHg 86%
    21:00 +10°C° 0 mm 1 mps 761 mmHg 84%
    22:00 +10°C° 0 mm 1 mps 761 mmHg 83%
    23:00 +10°C° 0 mm 1 mps 761 mmHg 82%

    24 December, Monday

    Time Temperature Precipitation Wind Pressure Humidity
    00:00 +10°C° 0 mm 1 mps 761 mmHg 81%
    01:00 +10°C° 0 mm 1 mps 761 mmHg 81%
    02:00 +10°C° 0 mm 1 mps 761 mmHg 81%
    03:00 +10°C° 0 mm 1 mps 760 mmHg 81%
    04:00 +10°C° 0 mm 1 mps 760 mmHg 81%
    05:00 +10°C° 0 mm 1 mps 760 mmHg 81%
    06:00 +8°C° 0 mm 2 mps 760 mmHg 81%
    07:00 +8°C° 0 mm 2 mps 760 mmHg 81%
    08:00 +10°C° 0 mm 2 mps 760 mmHg 78%
    09:00 +13°C° 0 mm 1 mps 760 mmHg 75%
    10:00 +14°C° 0 mm 1 mps 760 mmHg 72%
    11:00 +15°C° 0 mm 1 mps 760 mmHg 72%
    12:00 +15°C° 0 mm 1 mps 759 mmHg 72%
    13:00 +16°C° 0 mm 1 mps 759 mmHg 72%
    14:00 +15°C° 0 mm 1 mps 759 mmHg 77%
    15:00 +14°C° 0 mm 1 mps 759 mmHg 81%
    16:00 +13°C° 0 mm 1 mps 758 mmHg 86%
    17:00 +13°C° 0 mm 1 mps 759 mmHg 87%
    18:00 +12°C° 0 mm 1 mps 759 mmHg 88%
    19:00 +11°C° 0 mm 1 mps 759 mmHg 90%
    20:00 +11°C° 0 mm 1 mps 759 mmHg 89%
    21:00 +10°C° 0 mm 2 mps 759 mmHg 89%
    22:00 +10°C° 0 mm 2 mps 759 mmHg 89%
    23:00 +10°C° 0 mm 2 mps 759 mmHg 89%
    Show more